Regional Weather Roundup
Issued by NWS

Home | Current Version | Previous Version | Graphics & Text | Print | Product List | Glossary On
Versions: 1 2 3 4 5 6 7 8 9 10 11 12 13 14 15 16 17 18 19 20 21 22 23 24 25 26 27
000
ASUS45 KCYS 260110
RWRWY

WYOMING REGIONAL WEATHER ROUNDUP
NATIONAL WEATHER SERVICE CHEYENNE WY
700 PM MDT SAT MAR 25 2017

NOTE:  "FAIR" INDICATES FEW OR NO CLOUDS BELOW 12,000 FEET
WITH NO SIGNIFICANT WEATHER AND/OR OBSTRUCTIONS TO VISIBILITY.

WYZ001-260200-
YELLOWSTONE NATIONAL PARK

CITY           SKY/WX    TMP DP  RH WIND       PRES   REMARKS
LK YELLOWSTONE   N/A     34  19  54 W3        29.95R
W YELLOWSTONE  NOT AVBL

$$
WYZ002>013-054>058-071-098>099-260200-
NORTHERN WYOMING

CITY           SKY/WX    TMP DP  RH WIND       PRES   REMARKS
JACKSON        MOCLDY    39  27  60 W8        29.93R WCI  34
CODY           FAIR      43  31  62 NW6       29.92S
GREYBULL       LGT RAIN  46  42  86 E5        29.88R
WORLAND        LGT RAIN  46  42  86 N5        29.88R
SHERIDAN       LGT RAIN  43  40  89 NW8       29.92R
BUFFALO        LGT RAIN  42  37  82 NW12      29.91S
GILLETTE       FAIR      48  34  58 N17       29.86R
HULETT         FAIR      50  34  53 N13       29.88R
NEWCASTLE      FAIR      57  23  26 SE8       29.80S

$$
WYZ014>020-022>026-101>103-260200-
CENTRAL WYOMING

CITY           SKY/WX    TMP DP  RH WIND       PRES   REMARKS
BIG PINEY      CLOUDY    36  34  92 N12       29.93S WCI  28
PINEDALE       LGT SNOW  32  32 100 NW6       29.93S WCI  26
DUBOIS         CLOUDY    37  27  65 W14       29.89S WCI  29
LANDER         MOCLDY    47  35  63 E7        29.83S
RIVERTON       CLOUDY    47  38  71 N10       29.85S
CASPER         CLOUDY    51  33  50 N10       29.85R
DOUGLAS        MOCLDY    55  30  38 N6        29.83S

$$
WYZ021-027>030-104>119-260200-
SOUTHERN WYOMING

CITY           SKY/WX    TMP DP  RH WIND       PRES   REMARKS
EVANSTON       MIX PCPN  35  32  88 N6        29.96R WCI  30
KEMMERER         N/A     34  32  93 W15       29.93  WCI  24
FORT BRIDGER   LGT RAIN  38  37  99 NW12      29.96R WCI  30
ROCK SPRINGS   LGT RAIN  41  35  79 N17       29.90R
DIXON            N/A     49  32  52 NE3       29.91F
RAWLINS        CLOUDY    49  27  42 S13G21    29.87S
SARATOGA       CLOUDY    50  27  40 W8        29.90R
LARAMIE        FAIR      48  24  39 SE17      29.87R
CHEYENNE       FAIR      53  23  31 S10       29.87S
TORRINGTON     FAIR      58  28  32 E9        29.79F
PINE BLUFFS    FAIR      54  28  37 SE9       29.86S

$$




USA.gov is the U.S. government's official web portal to all federal, state and local government web resources and services.